Notices

What's New in latest Release from April 7th, 2021:

- Updated Glossary, including Speed of Maximum Gust, and Total Hourly Precipitation

- Updated national and regional climate services offices contacts and prices information

- Addition of station inventory lists for 1981-2010, 1971-2000, and 1961-1990 Normals.

If you haven't already, please take our survey and provide feedback about our website: https://eccc.sondage-survey.ca/f/LanguageSelection.aspx?s=442ca660-fcf1-47c0-95a9-59707d6fd709

Hourly Data Report for April 05, 2017

MIRAMICHI RCS
NEW BRUNSWICK

47°00'34.000" N
65°27'54.000" W
33.00 m
8100989
71744
ACQ

Download Data

Hourly Data (April 2017)
Hourly Data Report for April 5, 2017
TIME
LST
Temp Definition
°C
Dew Point Definition
°C
Rel Hum Definition
%
Precip. Amount Definition
mm

Wind Dir Definition
10's deg

Wind Spd Definition
km/h
Visibility Definition
km
Stn Press Definition
kPa
Hmdx Definition


Wind Chill Definition


Weather Definition


00:00 -1.6 -3.9 84 0.0 8 17   101.42   -7 LegendNANA
01:00 -1.8 -4.0 85 0.0 7 18   101.39   -7 LegendNANA
02:00 -1.7 -3.8 86 0.0 7 16   101.39   -7 LegendNANA
03:00 -1.8 -3.9 86 0.0 7 19   101.37   -7 LegendNANA
04:00 -2.0 -4.0 86 0.0 7 19   101.40   -8 LegendNANA
05:00 -2.1 -4.1 86 0.0 6 16   101.41   -7 LegendNANA
06:00 -2.0 -4.0 86 0.0 7 16   101.42   -7 LegendNANA
07:00 -1.8 -3.7 87 0.0 7 18   101.43   -7 LegendNANA
08:00 -1.2 -3.5 84 0.0 7 17   101.44   -6 LegendNANA
09:00 -0.4 -3.3 81 0.0 8 21   101.45   -6 LegendNANA
10:00 0.5 -3.3 76 0.0 7 11   101.46     LegendNANA
11:00 0.9 -2.7 77 0.0 5 12   101.45     LegendNANA
12:00 0.8 -2.7 78 0.0 4 15   101.43     LegendNANA
13:00 0.6 -2.8 78 0.0 4 18   101.41     LegendNANA
14:00 1.0 -2.8 75 0.0 5 19   101.43     LegendNANA
15:00 0.6 -2.3 81 0.0 5 21   101.38     LegendNANA
16:00 1.0 -2.9 76 0.0 5 16   101.42     LegendNANA
17:00 0.9 -2.2 80 0.0 4 13   101.46     LegendNANA
18:00 0.6 -2.0 83 0.0 4 9   101.52     LegendNANA
19:00 -0.1 -1.8 88 0.0 4 8   101.60   -3 LegendNANA
20:00 -0.6 -1.4 94 0.0 5 9   101.65   -4 LegendNANA
21:00 -0.7 -1.3 96 0.5 6 8   101.65   -4 LegendNANA
22:00 -0.7 -1.4 95 0.0 5 6   101.70   -3 LegendNANA
23:00 -0.8 -1.5 96 0.0 5 9   101.66   -4 LegendNANA

Notes on Data Quality.

Legend

  • E = Estimated
  • M = Missing
  • NA = Not Available*
  • [empty] = Indicates an unobserved value
Date modified: